BIMS4 Weather Reports


time (UTC)temp
F
wind
direction
speed
knots
gust
knots
rain 1hr
in
rain 24hr
in
rain mn
in
humidity
%
barometer
mb
20260506062305 52 299 0.0 2.6 0.00 0.00 0.00 84 1009.4
20260506061802 52 302 0.0 2.6 0.00 0.00 0.00 84 1009.3
20260506061307 52 263 0.0 3.5 0.00 0.00 0.00 84 1009.3
20260506060802 52 305 0.0 3.5 0.00 0.00 0.00 84 1009.3
20260506060301 52 301 0.0 2.6 0.00 0.00 0.00 85 1009.2
20260506051242 52 301 0.0 2.6 0.00 0.00 0.00 86 1009.1
20260506050750 52 285 0.0 0.9 0.00 0.00 0.00 86 1009.1
20260506050240 52 278 0.0 1.7 0.00 0.00 0.00 86 1009.0
20260506044739 51 297 0.0 2.6 0.00 0.00 0.00 85 1009.2
20260506044236 51 293 0.0 3.5 0.00 0.00 0.00 84 1009.1
20260506043739 51 289 0.0 3.5 0.00 0.00 0.00 85 1009.3
20260506043236 51 308 0.9 3.5 0.00 0.00 0.00 85 1009.3
20260506042738 51 310 0.9 3.5 0.00 0.00 0.00 85 1009.3
20260506042237 51 262 0.0 2.6 0.00 0.00 0.00 85 1009.3
20260506041750 51 300 0.0 1.7 0.00 0.00 0.00 85 1009.3
20260506041235 51 291 0.0 1.7 0.00 0.00 0.00 85 1009.3
20260506041017 51 284 0.0 1.7 0.00 0.00 0.00 85 1009.3
20260506040230 51 298 0.0 1.7 0.00 0.00 0.00 84 1009.3
20260506035723 51 293 0.0 1.7 0.00 0.00 0.00 85 1009.3
20260506035220 51 316 0.0 1.7 0.00 0.00 0.00 84 1009.3
20260506034712 51 85 0.0 1.7 0.00 0.00 0.00 84 1009.4
20260506034207 51 86 0.0 2.6 0.00 0.00 0.00 84 1009.4
20260506033712 51 317 0.0 2.6 0.00 0.00 0.00 84 1009.4
20260506033213 51 297 0.0 1.7 0.00 0.00 0.00 84 1009.4
20260506032945 51 280 0.0 2.6 0.00 0.00 0.00 84 1009.5
20260506032210 51 320 0.0 2.6 0.00 0.00 0.00 84 1009.5
20260506031708 51 303 0.0 2.6 0.00 0.00 0.00 84 1009.6
20260506031204 51 299 0.0 2.6 0.00 0.00 0.00 84 1009.6
20260506030748 51 324 0.0 2.6 0.00 0.00 0.00 84 1009.7
20260506030730 51 296 0.0 2.6 0.00 0.00 0.00 84 1009.6
20260506025703 51 320 0.0 0.9 0.00 0.00 0.00 84 1009.8
20260506025202 51 291 0.0 1.7 0.00 0.00 0.00 84 1009.8
20260506024702 51 306 0.0 1.7 0.00 0.00 0.00 83 1009.8
20260506024457 51 306 0.0 1.7 0.00 0.00 0.00 83 1009.8
20260506023703 51 256 0.0 2.6 0.00 0.00 0.00 83 1009.9
20260506023158 51 260 0.0 2.6 0.00 0.00 0.00 83 1010.0
20260506022656 51 303 0.0 1.7 0.00 0.00 0.00 83 1009.9
20260506022155 51 296 0.0 0.9 0.00 0.00 0.00 83 1009.8
20260506021654 51 289 0.0 1.7 0.00 0.00 0.00 82 1009.8
20260506021152 51 303 0.0 1.7 0.00 0.00 0.00 82 1009.9
20260506020649 51 312 0.0 1.7 0.00 0.00 0.00 82 1009.9
20260506020149 51 24 0.0 1.7 0.00 0.00 0.00 82 1009.9
20260506015658 51 308 0.0 1.7 0.00 0.00 0.00 81 1009.9
20260506015146 51 303 0.0 1.7 0.00 0.00 0.00 81 1010.0
20260506014648 51 313 0.0 1.7 0.00 0.00 0.00 81 1010.0
20260506014515 51 334 0.0 1.7 0.00 0.00 0.00 81 1010.0
20260506013644 51 310 0.0 1.7 0.00 0.00 0.00 80 1010.0
20260506013145 51 316 0.0 1.7 0.00 0.00 0.00 80 1010.1
20260506012644 52 72 0.0 2.6 0.00 0.00 0.00 80 1010.0
20260506012144 51 224 0.0 2.6 0.00 0.00 0.00 80 1010.1
20260506011946 51 308 0.0 2.6 0.00 0.00 0.00 80 1010.1
20260506011146 51 316 0.0 2.6 0.00 0.00 0.00 79 1010.1
20260506010642 51 313 0.0 2.6 0.00 0.00 0.00 79 1010.2
20260506010144 51 349 0.9 3.5 0.00 0.00 0.00 79 1010.2
20260506005643 51 301 0.9 3.5 0.00 0.00 0.00 79 1010.2
20260506005143 51 103 0.9 5.2 0.00 0.00 0.00 79 1010.3
20260506004640 51 268 0.9 5.2 0.00 0.00 0.00 79 1010.4
20260506004140 51 308 0.0 2.6 0.00 0.00 0.00 79 1010.4
20260506003640 51 295 0.0 3.5 0.00 0.00 0.00 79 1010.5
20260506003141 51 289 0.0 3.5 0.00 0.00 0.00 79 1010.6
20260506002937 51 296 0.0 2.6 0.00 0.00 0.00 79 1010.5
20260506002140 51 294 0.9 5.2 0.00 0.00 0.00 79 1010.5
20260506001931 51 297 0.9 5.2 0.00 0.00 0.00 79 1010.5
20260506001142 51 304 0.9 5.2 0.00 0.00 0.00 80 1010.6
20260506000642 51 312 0.0 2.6 0.00 0.00 0.00 81 1010.5
20260506000140 51 301 0.0 2.6 0.00 0.00 0.00 81 1010.5
20260505235640 51 323 0.0 2.6 0.00 0.00 0.00 81 1010.6
20260505235141 51 304 0.0 1.7 0.00 0.00 0.00 81 1010.6
20260505234650 51 306 0.0 2.6 0.00 0.00 0.00 81 1010.6
20260505234138 51 317 0.0 2.6 0.00 0.00 0.00 81 1010.8
20260505233640 51 287 0.0 1.7 0.00 0.00 0.00 81 1010.8
20260505233138 51 300 0.0 1.7 0.00 0.00 0.00 81 1010.8
20260505232919 51 298 0.0 1.7 0.00 0.00 0.00 81 1010.9
20260505232133 51 312 0.0 2.6 0.00 0.00 0.00 81 1010.9
20260505231630 51 308 0.9 2.6 0.00 0.00 0.00 81 1011.0
20260505231537 51 310 0.0 3.5 0.00 0.00 0.00 82 1011.0
20260505231204 51 304 0.0 3.5 0.00 0.00 0.00 81 1011.0
20260505230112 51 286 0.0 3.5 0.00 0.00 0.00 82 1011.0
20260505225618 51 303 0.0 1.7 0.00 0.00 0.00 82 1011.1
20260505225114 51 299 0.0 1.7 0.00 0.00 0.00 82 1011.1
20260505224613 51 305 0.0 1.7 0.00 0.00 0.00 82 1011.2
20260505224107 51 275 0.0 1.7 0.00 0.00 0.00 82 1011.1
20260505223607 51 309 0.0 1.7 0.00 0.00 0.00 82 1011.1
20260505223106 51 340 0.0 1.7 0.00 0.00 0.00 82 1011.2
20260505222853 51 316 0.0 1.7 0.00 0.00 0.00 82 1011.3
20260505222105 51 7 0.0 0.9 0.00 0.00 0.00 82 1011.2
20260505221605 51 316 0.0 2.6 0.00 0.00 0.00 82 1011.2
20260505221103 51 105 0.0 2.6 0.00 0.00 0.00 82 1011.5
20260505220604 51 306 0.0 2.6 0.00 0.00 0.00 82 1011.4
20260505220104 51 91 0.0 2.6 0.00 0.00 0.00 83 1011.4
20260505215602 51 303 0.0 1.7 0.00 0.00 0.00 83 1011.4
20260505215103 51 288 0.0 2.6 0.00 0.00 0.00 82 1011.5
20260505214602 51 306 0.0 2.6 0.00 0.00 0.00 82 1011.5
20260505214109 51 314 0.0 0.9 0.00 0.00 0.00 82 1011.6
20260505213601 51 305 0.0 1.7 0.00 0.00 0.00 81 1011.5
20260505213101 51 291 0.0 1.7 0.00 0.00 0.00 81 1011.5
20260505212556 51 60 0.0 1.7 0.00 0.00 0.00 80 1011.5
20260505212052 51 288 0.0 2.6 0.00 0.00 0.00 80 1011.5
20260505211544 51 318 0.0 2.6 0.00 0.00 0.00 79 1011.5
20260505211037 52 308 0.0 2.6 0.00 0.00 0.00 79 1011.6
20260505210533 52 6 0.0 4.3 0.00 0.00 0.00 78 1011.6
20260505210030 52 73 0.9 6.1 0.00 0.00 0.00 78 1011.6
20260505205532 52 315 0.0 6.1 0.00 0.00 0.00 77 1011.7
20260505205030 52 319 0.0 2.6 0.00 0.00 0.00 77 1011.7
20260505204530 52 317 0.9 2.6 0.00 0.00 0.00 76 1011.7
20260505204328 52 317 0.9 2.6 0.00 0.00 0.00 75 1011.8
20260505203828 52 295 0.0 2.6 0.00 0.00 0.00 75 1011.8
20260505203337 52 337 0.0 1.7 0.00 0.00 0.00 74 1011.8
20260505202532 52 308 0.0 1.7 0.00 0.00 0.00 74 1011.7
20260505202030 52 312 0.0 2.6 0.00 0.00 0.00 74 1011.8
20260505201918 52 322 0.9 4.3 0.00 0.00 0.00 74 1011.8
20260505201914 52 273 0.9 4.3 0.00 0.00 0.00 74 1011.8
20260505200536 52 287 0.0 2.6 0.00 0.00 0.00 74 1011.7
20260505200031 52 306 0.0 2.6 0.00 0.00 0.00 74 1011.7
20260505195823 52 290 0.9 2.6 0.00 0.00 0.00 74 1011.7
20260505195030 52 310 0.9 3.5 0.00 0.00 0.00 74 1011.6
20260505194819 53 82 0.9 3.5 0.00 0.00 0.00 74 1011.5
20260505194032 53 299 0.9 2.6 0.00 0.00 0.00 74 1011.6
20260505193527 53 285 0.9 2.6 0.00 0.00 0.00 74 1011.4
20260505193024 53 324 0.9 1.7 0.00 0.00 0.00 74 1011.4
20260505192522 53 307 0.9 2.6 0.00 0.00 0.00 74 1011.3
20260505192305 53 318 0.9 2.6 0.00 0.00 0.00 74 1011.2
20260505191518 53 306 0.9 2.6 0.00 0.00 0.00 74 1011.2
20260505191019 53 322 0.9 2.6 0.00 0.00 0.00 74 1011.0
20260505190520 53 307 0.9 2.6 0.00 0.00 0.00 74 1011.1
20260505190306 53 144 0.0 2.6 0.00 0.00 0.00 75 1011.0
20260505185519 53 231 0.9 2.6 0.00 0.00 0.00 75 1011.0
20260505185018 53 287 0.9 3.5 0.00 0.00 0.00 75 1011.1
20260505184522 53 320 0.9 3.5 0.00 0.00 0.00 75 1011.0
20260505184018 53 312 0.9 3.5 0.00 0.00 0.00 75 1011.0
20260505183804 54 347 0.0 2.6 0.00 0.00 0.00 75 1011.0
20260505183016 54 298 0.9 2.6 0.00 0.00 0.00 75 1011.0
20260505182518 54 247 0.9 2.6 0.00 0.00 0.00 75 1011.0
20260505182017 54 299 0.9 2.6 0.00 0.00 0.00 75 1011.0
20260505181514 54 285 0.9 3.5 0.00 0.00 0.00 75 1011.1
20260505181322 54 314 0.9 3.5 0.00 0.00 0.00 75 1011.1
20260505180755 54 292 0.9 3.5 0.00 0.00 0.00 74 1011.1
20260505180013 54 276 0.9 2.6 0.00 0.00 0.00 74 1011.1
20260505175512 55 293 0.9 3.5 0.00 0.00 0.00 74 1011.1
20260505175257 55 303 0.9 3.5 0.00 0.00 0.00 74 1011.1
20260505174809 55 312 0.9 3.5 0.00 0.00 0.00 74 1011.2
20260505174011 55 310 0.9 5.2 0.00 0.00 0.00 74 1011.2
20260505173510 55 201 0.9 5.2 0.00 0.00 0.00 74 1011.2
20260505173256 56 280 0.9 3.5 0.00 0.00 0.00 73 1011.2
20260505172907 56 330 0.9 3.5 0.00 0.00 0.00 73 1011.3
20260505172545 56 266 0.9 3.5 0.00 0.00 0.00 73 1011.3
20260505171510 56 300 0.9 6.1 0.00 0.00 0.00 72 1011.3
20260505171008 57 327 0.0 6.1 0.00 0.00 0.00 72 1011.2
20260505170508 57 73 0.9 3.5 0.00 0.00 0.00 72 1011.2
20260505170008 57 288 0.9 5.2 0.00 0.00 0.00 71 1011.2
20260505165512 57 310 0.9 5.2 0.00 0.00 0.00 71 1011.1
20260505165247 57 284 1.7 5.2 0.00 0.00 0.00 71 1011.3
20260505164508 57 302 1.7 5.2 0.00 0.00 0.00 72 1011.3
20260505164013 57 309 0.9 3.5 0.00 0.00 0.00 73 1011.2
20260505163506 57 307 0.9 5.2 0.00 0.00 0.00 72 1011.2
20260505163145 57 273 1.7 5.2 0.00 0.00 0.00 72 1011.3
20260505163141 57 239 0.9 5.2 0.00 0.00 0.00 71 1011.3
20260505163119 57 291 0.9 5.2 0.00 0.00 0.00 72 1011.3
20260505161504 57 306 0.9 3.5 0.00 0.00 0.00 72 1011.2
20260505161006 57 276 0.9 3.5 0.00 0.00 0.00 72 1011.2
20260505160504 57 33 1.7 3.5 0.00 0.00 0.00 72 1011.3
20260505153007 59 310 1.7 7.8 0.00 0.00 0.00 68 1011.4
20260505152506 59 297 0.9 8.7 0.00 0.00 0.00 67 1011.4
20260505152004 59 293 0.9 8.7 0.00 0.00 0.00 67 1011.4
20260505151504 59 298 0.9 6.1 0.00 0.00 0.00 68 1011.4
20260505151004 59 287 0.9 5.2 0.00 0.00 0.00 68 1011.4
20260505150504 58 313 1.7 6.1 0.00 0.00 0.00 68 1011.3
20260505140503 59 291 1.7 5.2 0.00 0.00 0.00 67 1011.7
20260505124941 58 103 0.9 5.2 0.00 0.00 0.00 69 1012.1
20260505124444 58 300 0.9 5.2 0.00 0.00 0.00 69 1012.1
20260505124235 58 296 0.9 4.3 0.00 0.00 0.00 69 1012.1
20260505123439 58 276 0.9 5.2 0.00 0.00 0.00 69 1012.0
20260505122943 58 20 1.7 5.2 0.00 0.00 0.00 69 1012.0
20260505122440 58 304 0.9 5.2 0.00 0.00 0.00 70 1012.1
20260505121940 58 276 0.9 5.2 0.00 0.00 0.00 70 1012.3
20260505121440 58 95 0.9 3.5 0.00 0.00 0.00 71 1012.3
20260505120941 58 20 0.9 3.5 0.00 0.00 0.00 70 1012.4
20260505120442 58 297 0.9 6.1 0.00 0.00 0.00 71 1012.2
20260505115935 58 295 1.7 6.1 0.00 0.00 0.00 71 1012.3
20260505115747 58 314 0.9 6.1 0.00 0.00 0.00 71 1012.2
20260505114935 58 296 1.7 7.0 0.00 0.00 0.00 72 1012.3
20260505114434 57 292 1.7 7.0 0.00 0.00 0.00 71 1012.2
20260505113933 58 291 0.9 5.2 0.00 0.00 0.00 71 1012.2
20260505113434 57 314 0.9 3.5 0.00 0.00 0.00 71 1012.3
20260505112934 57 276 0.9 3.5 0.00 0.00 0.00 71 1012.3
20260505112435 57 316 0.9 5.2 0.00 0.00 0.00 72 1012.3
20260505111933 57 284 0.0 5.2 0.00 0.00 0.00 72 1012.4
20260505111431 56 320 0.0 0.9 0.00 0.00 0.00 73 1012.5
20260505110931 56 289 0.0 0.0 0.00 0.00 0.00 75 1012.4
20260505110434 56 281 0.0 1.7 0.00 0.00 0.00 76 1012.4
20260505101923 54 298 0.0 2.6 0.00 0.00 0.00 79 1013.0
20260505101422 53 304 0.0 1.7 0.00 0.00 0.00 80 1012.9
20260505100919 53 313 0.0 1.7 0.00 0.00 0.00 80 1012.9
20260505100419 53 81 0.0 2.6 0.00 0.00 0.00 80 1012.9
20260505100231 53 303 0.0 2.6 0.00 0.00 0.00 80 1012.8
20260505095419 53 79 0.0 2.6 0.00 0.00 0.00 81 1012.8
20260505094922 53 62 0.0 2.6 0.00 0.00 0.00 81 1012.9
20260505094759 53 1 0.0 3.5 0.00 0.00 0.00 82 1012.9
20260505094420 53 291 0.0 3.5 0.00 0.00 0.00 81 1013.0
20260505093709 53 301 0.0 1.7 0.00 0.00 0.00 82 1012.9
20260505092917 52 26 0.0 3.5 0.00 0.00 0.00 83 1013.0
20260505092418 52 58 0.0 3.5 0.00 0.00 0.00 83 1012.9
20260505091913 52 293 0.0 3.5 0.00 0.00 0.00 83 1012.9
20260505091405 52 322 0.0 3.5 0.00 0.00 0.00 83 1012.9
20260505090912 52 62 0.0 1.7 0.00 0.00 0.00 84 1012.9
20260505090405 52 106 0.0 1.7 0.00 0.00 0.00 85 1012.9
20260505085905 51 316 0.0 2.6 0.00 0.00 0.00 86 1012.8
20260505085403 51 76 0.0 3.5 0.00 0.00 0.00 87 1012.8
20260505084903 51 83 0.0 4.3 0.00 0.00 0.00 87 1012.7
20260505084403 51 67 0.0 4.3 0.00 0.00 0.00 87 1012.7
20260505083917 51 51 0.0 2.6 0.00 0.00 0.00 88 1012.7
20260505083403 51 304 0.0 2.6 0.00 0.00 0.00 88 1012.8
20260505082908 51 313 0.0 1.7 0.00 0.00 0.00 89 1012.8
20260505082627 51 326 0.0 1.7 0.00 0.00 0.00 89 1012.9
20260505081903 50 68 0.0 1.7 0.00 0.00 0.00 89 1013.0
20260505081403 50 330 0.0 3.5 0.00 0.00 0.00 90 1013.0
20260505080902 50 114 0.0 3.5 0.00 0.00 0.00 90 1013.0
20260505080402 50 305 0.0 1.7 0.00 0.00 0.00 90 1012.9
20260505075903 50 300 0.0 1.7 0.00 0.00 0.00 91 1013.0
20260505075417 50 311 0.0 1.7 0.00 0.00 0.00 91 1013.0
20260505075205 49 348 0.0 1.7 0.00 0.00 0.00 91 1013.0
20260505074404 49 291 0.0 1.7 0.00 0.00 0.00 91 1013.1
20260505073901 49 288 0.0 1.7 0.00 0.00 0.00 92 1013.2
20260505073651 49 69 0.0 1.7 0.00 0.00 0.00 92 1013.1
20260505072857 49 45 0.0 2.6 0.00 0.00 0.00 92 1013.1
20260505072356 49 101 0.0 2.6 0.00 0.00 0.00 92 1013.1
20260505071854 49 89 0.0 2.6 0.00 0.00 0.00 92 1013.2
20260505071355 49 64 0.0 2.6 0.00 0.00 0.00 92 1013.1
20260505070854 49 68 0.0 2.6 0.00 0.00 0.00 92 1013.2
20260505070702 49 276 0.0 1.7 0.00 0.00 0.00 92 1013.2